Simultaneous Nadir Overpasses (SNOs) Predictions

Prediction of SNOs over PacNW region [( 10.00, 139.50) to ( 22.70, 165.60)] between AQUA and NPP Satellites:

Table of predicted SNOs over PacNW region for the next 30.0 days since TLE Epoch: 11/28/2015
Index Date (AQUA) Time (AQUA) AQUA Lat,Lon Date (NPP) Time (NPP) NPP Lat,Lon Distance(km) Time Diff (sec)
1 11/30/2015 03:30:10 17.25, 148.76 11/30/2015 03:28:11 16.93, 147.14 175.45 119
2 12/08/2015 02:42:06 22.08, 159.99 12/08/2015 02:38:46 21.78, 158.64 143.63 200
3 12/13/2015 15:09:50 22.64, 159.83 12/13/2015 15:13:19 23.72, 157.31 284.69 209
4 12/16/2015 03:30:17 17.66, 148.67 12/16/2015 03:28:11 17.34, 147.02 178.14 126
5 12/24/2015 02:41:59 22.14, 160.02 12/24/2015 02:38:38 21.84, 158.61 148.67 201




NCC Satellite Simultaneous Nadir Overpasses (SNOs) Prediction Service
